This demonstration page uses our WeatherBlox Daily Observations layout. Learn more.

Hourly Observations for March 10, 2020

Temp ( °F °C ) Dew Point ( °F °C ) Humidity (%) Winds ( mph kmh ) Pressure ( in mb ) Visibility ( mi km ) Precip ( " mm )
12:15 am 00:15 Cloudy with Fog 33 0.7 33 0.3 97 97 ENE 3 6 30.3 1026 0.25 0.402335 0 0
12:35 am 00:35 Cloudy with Fog 33 0.7 33 0.3 97 97 E 5 7 30.29 1026 0.25 0.402335 0 0
12:55 am 00:55 Cloudy with Fog 33 0.6 33 0.3 98 98 Calm 30.3 1026 0.25 0.402335 0 0
1:15 am 01:15 Cloudy with Fog 33 0.4 32 0 97 97 E 3 6 30.29 1026 0.25 0.402335 0 0
1:35 am 01:35 Cloudy with Fog 33 0.5 32 0.2 98 98 ENE 3 6 30.3 1026 0.25 0.402335 0 0
1:55 am 01:55 Cloudy with Fog 32 0.2 32 0 99 99 E 3 6 30.31 1027 0.25 0.402335 0 0
2:15 am 02:15 Cloudy with Fog 32 0 32 0 100 100 E 3 6 30.33 1027 0.25 0.402335 0 0
2:35 am 02:35 Cloudy with Fog 32 0.2 32 0 99 99 S 5 7 30.33 1027 0.25 0.402335 0 0
2:55 am 02:55 Cloudy with Fog 32 0.2 32 0 99 99 SSE 5 7 30.32 1027 0.25 0.402335 0 0
3:15 am 03:15 Cloudy with Fog 32 0.2 32 0 99 99 SSE 6 9 30.32 1027 0.25 0.402335 0 0
3:35 am 03:35 Cloudy with Fog 32 0 32 -0.1 99 99 S 6 9 30.33 1027 0.25 0.402335 0 0
3:55 am 03:55 Cloudy with Fog 32 0 32 -0.2 99 99 Calm 30.33 1027 0.5 0.80467 0 0
4:15 am 04:15 Cloudy with Fog 32 0 32 -0.2 99 99 Calm 30.31 1026 0.5 0.80467 0 0
4:35 am 04:35 Cloudy with Mist and Fog 32 0 32 -0.1 99 99 S 3 6 30.3 1026 0.75 1.207005 0 0
4:55 am 04:55 Cloudy with Fog 32 0 32 0 100 100 SSE 3 6 30.29 1026 0.5 0.80467 0 0
5:15 am 05:15 Cloudy with Mist and Fog 32 0 32 0 100 100 SSE 3 6 30.29 1026 0.75 1.207005 0 0
5:35 am 05:35 Cloudy with Mist and Fog 32 0 32 0 100 100 SSW 6 9 30.32 1027 5 8.0467 0 0
5:55 am 05:55 Cloudy with Mist and Fog 32 0.2 32 0 99 99 WSW 5 7 30.33 1027 3 4.82802 0 0
6:15 am 06:15 Cloudy with Mist and Fog 33 0.3 32 0 98 98 S 6 9 30.3 1026 2.5 4.02335 0 0
6:35 am 06:35 Cloudy with Mist and Fog 33 0.3 32 0 98 98 Calm 30.31 1027 1.75 2.816345 0 0
6:55 am 06:55 Cloudy with Mist and Fog 33 0.3 32 0 98 98 S 5 7 30.29 1026 2.5 4.02335 0 0
7:15 am 07:15 Cloudy with Mist and Fog 33 0.3 32 0 98 98 S 5 7 30.3 1026 1 1.60934 0 0
7:35 am 07:35 Cloudy with Fog 33 0.3 32 0 98 98 S 6 9 30.31 1027 0.5 0.80467 0 0
7:55 am 07:55 Cloudy with Fog 33 0.3 32 0.1 99 99 S 6 9 30.29 1026 0.5 0.80467 0 0
8:15 am 08:15 Cloudy with Fog 33 0.5 32 0.1 97 97 S 5 7 30.3 1026 0.25 0.402335 0 0
8:35 am 08:35 Cloudy with Fog 33 0.5 32 0.2 98 98 S 9 15 30.31 1026 N/A 0 0
8:55 am 08:55 Cloudy with Fog 33 0.6 33 0.3 98 98 S 10 17 30.29 1026 N/A 0 0
9:15 am 09:15 Cloudy with Fog 34 1 33 0.6 97 97 S 7 11 30.29 1026 N/A 0 0
9:35 am 09:35 Cloudy with Fog 34 1.1 33 0.8 98 98 SSW 9 15 30.31 1026 0.25 0.402335 0 0
9:55 am 09:55 Cloudy with Mist and Fog 35 1.4 34 1 97 97 S 9 15 30.29 1026 0.75 1.207005 0 0
10:15 am 10:15 Cloudy with Mist and Fog 35 1.7 35 1.4 98 98 S 10 17 30.28 1025 1.75 2.816345 0 0
10:35 am 10:35 Cloudy with Mist and Fog 35 1.8 35 1.5 98 98 S 10 17 30.28 1025 2 3.21868 0 0
10:55 am 10:55 Cloudy with Mist and Fog 36 2.4 36 2 97 97 S 9 15 30.26 1025 4 6.43736 0 0
11:15 am 11:15 Cloudy with Mist and Fog 38 3.1 37 2.7 97 97 S 15 24 30.27 1025 5 8.0467 0 0
11:35 am 11:35 Cloudy with Mist and Fog 39 4 38 3.6 97 97 S 13 20 30.25 1024 5 8.0467 0 0
11:55 am 11:55 Cloudy 41 5 40 4.6 97 97 S 12 19 30.23 1024 10 16.0934 0 0
12:15 pm 12:15 Cloudy 42 5.4 41 5.1 98 98 S 9 15 30.22 1024 10 16.0934 0 0
12:35 pm 12:35 Cloudy 43 6.3 43 6 98 98 SSW 7 11 30.22 1023 10 16.0934 0 0
12:55 pm 12:55 Mostly Cloudy 45 7 44 6.5 97 97 S 7 11 30.21 1023 10 16.0934 0 0
1:15 pm 13:15 Mostly Cloudy 46 7.7 44 6.9 95 95 S 9 15 30.18 1022 10 16.0934 0 0
1:35 pm 13:35 Partly Cloudy 49 9.5 43 5.9 78 78 S 10 17 30.16 1021 10 16.0934 0 0
1:55 pm 13:55 Mostly Cloudy 51 10.7 42 5.4 70 70 S 14 22 30.13 1020 10 16.0934 0 0
2:15 pm 14:15 Partly Cloudy 51 10.5 42 5.3 70 70 S 9 15 30.12 1020 10 16.0934 0 0
2:35 pm 14:35 Sunny 52 11.2 42 5.5 68 68 SSE 9 15 30.09 1019 10 16.0934 0 0
2:55 pm 14:55 Partly Cloudy 53 11.4 42 5.4 67 67 SSE 13 20 30.07 1018 10 16.0934 0 0
3:15 pm 15:15 Partly Cloudy 54 12.2 42 5.5 64 64 S 14 22 30.06 1018 10 16.0934 0 0
3:35 pm 15:35 Mostly Cloudy 55 12.5 42 5.6 63 63 S 13 20 30.05 1018 10 16.0934 0 0
3:55 pm 15:55 Partly Cloudy 54 12.2 42 5.5 64 64 S 15 24 30.04 1017 10 16.0934 0 0
4:15 pm 16:15 Sunny 54 12.2 42 5.6 64 64 S 10 17 30.04 1017 10 16.0934 0 0
4:35 pm 16:35 Sunny 55 12.5 42 5.5 63 63 S 13 20 30.03 1017 10 16.0934 0 0
4:55 pm 16:55 Sunny 55 12.7 42 5.6 62 62 SSE 10 17 30.03 1017 10 16.0934 0 0
5:15 pm 17:15 Sunny 55 12.7 42 5.5 62 62 SSE 13 20 30.02 1017 10 16.0934 0 0
5:35 pm 17:35 Sunny 55 12.6 42 5.5 62 62 S 12 19 30.02 1017 10 16.0934 0 0
5:55 pm 17:55 Sunny 55 12.8 42 5.6 62 62 S 13 20 30 1016 10 16.0934 0 0
6:15 pm 18:15 Sunny 54 12.1 42 5.3 63 63 S 10 17 30 1016 10 16.0934 0 0
6:35 pm 18:35 Sunny 54 12 42 5.3 64 64 SSE 7 11 30.02 1016 10 16.0934 0 0
6:55 pm 18:55 Sunny 52 10.9 41 5.1 68 68 SSE 7 11 30.02 1017 10 16.0934 0 0
7:15 pm 19:15 Sunny 50 9.9 41 5.2 73 73 SSE 6 9 30.03 1017 10 16.0934 0 0
7:35 pm 19:35 Sunny 49 9.6 41 5.1 74 74 S 3 6 30.05 1017 10 16.0934 0 0
7:55 pm 19:55 Clear 47 8.6 41 5 78 78 SSE 5 7 30.06 1018 10 16.0934 0 0
8:15 pm 20:15 Clear 47 8.5 41 5 79 79 S 7 11 30.07 1018 10 16.0934 0 0
8:35 pm 20:35 Mostly Cloudy 48 8.8 41 5 77 77 Calm 30.07 1018 10 16.0934 0 0
8:55 pm 20:55 Cloudy 48 9 41 5 76 76 SSE 5 7 30.08 1019 10 16.0934 0 0
9:15 pm 21:15 Cloudy 48 8.8 41 5.1 78 78 Calm 30.09 1019 10 16.0934 0 0
9:35 pm 21:35 Cloudy with Light Rain 47 8.4 41 5.2 80 80 Calm 30.11 1020 10 16.0934 0 0
9:55 pm 21:55 Cloudy 47 8.4 42 5.4 82 82 SW 3 6 30.11 1020 10 16.0934 0 0
10:15 pm 22:15 Cloudy 47 8.3 42 5.7 84 84 SSW 7 11 30.1 1019 10 16.0934 0 0
10:35 pm 22:35 Cloudy 47 8.3 42 5.6 83 83 S 5 7 30.09 1019 10 16.0934 0 0
10:55 pm 22:55 Partly Cloudy 45 7.4 41 5.1 86 86 SSE 5 7 30.09 1019 10 16.0934 0 0
11:15 pm 23:15 Clear 43 6.3 40 4.5 88 88 Calm 30.11 1020 10 16.0934 0 0
11:35 pm 23:35 Clear 42 5.4 39 3.9 90 90 Calm 30.12 1020 10 16.0934 0 0
11:55 pm 23:55 Clear 42 5.8 40 4.5 91 91 NW 5 7 30.13 1020 10 16.0934 0 0

Powered by AerisWeather